Location: Shannon
(40.5500°S, 175.4167°E)
Time: 20:14:23
(UTC+00:00)

Cosmos 962 Rocket - Pass Details

Date: 17 November 2025
Orbit: 949 x 999 km, 82.9° (Epoch: 14 December)

Event Time Altitude Azimuth Distance (km) Brightness Sun altitude
Exits shadow 13:46:39 62° 315° (NW) 1,081 4.4 -25.7°
Maximum altitude 13:47:35 72° 262° (W) 1,013 4.4 -25.6°
Drops below altitude 10° 13:53:50 10° 177° (S) 2,732 7.7 -25.0°
Sets 13:56:24 0° 174° (S) 3,692 8.6 -24.8°
